FW8840 Weather Reports


time (UTC)temp
C
wind
direction
speed
KPH
gust
KPH
rain 1hr
cm
rain 24hr
cm
rain mn
cm
humidity
%
barometer
mb
20260507123524 21 45 3.2 6.4 0.00 0.00 0.00 68 1018.1
20260507122523 20 6 4.8 6.4 0.00 0.00 0.00 70 1018.3
20260507121523 19 316 1.6 4.8 0.00 0.00 0.00 72 1018.6
20260507120524 18 338 1.6 3.2 0.00 0.00 0.00 75 1018.8
20260507115523 18 30 1.6 3.2 0.00 0.00 0.00 80 1018.8
20260507114523 18 45 1.6 3.2 0.00 0.00 0.00 82 1018.8
20260507113524 18 338 1.6 6.4 0.00 0.00 0.00 81 1019.1
20260507112523 18 337 3.2 6.4 0.00 0.00 0.00 78 1019.2
20260507111523 19 292 1.6 6.4 0.00 0.00 0.00 76 1019.2
20260507110523 19 315 1.6 6.4 0.00 0.00 0.00 73 1019.2
20260507105523 19 338 3.2 6.4 0.00 0.00 0.00 72 1019.2
20260507104543 20 338 3.2 6.4 0.00 0.00 0.00 69 1019.1
20260507103543 20 310 1.6 4.8 0.00 0.00 0.00 64 1019.1
20260507102523 20 276 4.8 9.7 0.00 0.00 0.00 63 1019.2
20260507101603 20 292 3.2 6.4 0.00 0.00 0.00 64 1019.1
20260507100522 20 284 6.4 9.7 0.00 0.00 0.00 66 1019.2
20260507095522 20 280 6.4 9.7 0.00 0.00 0.00 62 1019.0
20260507094522 20 270 8.0 11.3 0.00 0.00 0.00 61 1018.7
20260507093543 21 286 8.0 11.3 0.00 0.00 0.00 62 1018.6
20260507092522 21 302 4.8 9.7 0.00 0.00 0.00 62 1018.3
20260507091522 21 273 4.8 9.7 0.00 0.00 0.00 63 1018.2
20260507090522 21 296 6.4 11.3 0.00 0.00 0.00 60 1018.1
20260507085522 21 310 6.4 8.0 0.00 0.00 0.00 59 1018.0
20260507084522 21 301 4.8 9.7 0.00 0.00 0.00 59 1017.9
20260507083523 21 316 4.8 8.0 0.00 0.00 0.00 59 1017.8
20260507082522 21 331 3.2 6.4 0.00 0.00 0.00 59 1017.7
20260507081522 21 279 4.8 9.7 0.00 0.00 0.00 58 1017.6
20260507080522 21 263 4.8 6.4 0.00 0.00 0.00 59 1017.6
20260507075522 20 273 3.2 6.4 0.00 0.00 0.00 60 1017.4
20260507074522 21 272 4.8 6.4 0.00 0.00 0.00 62 1017.4
20260507073522 21 309 3.2 6.4 0.00 0.00 0.00 61 1017.3
20260507072522 20 304 4.8 6.4 0.00 0.00 0.00 61 1017.2
20260507071522 20 345 3.2 6.4 0.00 0.00 0.00 63 1017.2
20260507070522 20 324 4.8 9.7 0.00 0.00 0.00 68 1017.2
20260507065522 20 297 4.8 6.4 0.00 0.00 0.00 68 1017.3
20260507064542 20 333 6.4 9.7 0.00 0.00 0.00 66 1017.4
20260507063522 21 295 4.8 8.0 0.00 0.00 0.00 65 1017.4
20260507062522 21 334 3.2 6.4 0.00 0.00 0.00 62 1017.3
20260507061602 21 311 1.6 6.4 0.00 0.00 0.00 65 1017.1
20260507060533 21 45 1.6 3.2 0.00 0.00 0.00 63 1017.1
20260507055521 20 45 0.0 3.2 0.00 0.00 0.00 68 1016.9
20260507054602 20 45 1.6 3.2 0.00 0.00 0.00 73 1017.1
20260507053622 18 45 0.0 3.2 0.00 0.00 0.00 77 1017.0
20260507052521 18 45 1.6 3.2 0.00 0.00 0.00 83 1016.8
20260507051521 17 56 1.6 4.8 0.00 0.00 0.00 83 1016.8
20260507050521 16 180 1.6 1.6 0.00 0.00 0.00 88 1016.8
20260507045521 14 180 3.2 6.4 0.00 0.00 0.00 91 1016.8
20260507044522 13 180 3.2 6.4 0.00 0.00 0.00 94 1016.8
20260507043522 12 184 4.8 6.4 0.00 0.00 0.00 95 1016.7
20260507042521 11 202 4.8 6.4 0.00 0.00 0.00 96 1016.7
20260507041521 11 202 3.2 8.0 0.00 0.00 0.00 96 1016.6
20260507040521 11 202 3.2 6.4 0.00 0.00 0.00 96 1016.6
20260507035521 11 202 1.6 3.2 0.00 0.00 0.00 96 1016.4
20260507034521 11 202 3.2 6.4 0.00 0.00 0.00 96 1016.4
20260507033521 11 202 4.8 6.4 0.00 0.00 0.00 96 1016.3
20260507032520 11 202 4.8 6.4 0.00 0.00 0.00 96 1016.3
20260507031520 11 202 4.8 6.4 0.00 0.00 0.00 96 1016.3
20260507030520 11 193 4.8 6.4 0.00 0.00 0.00 96 1016.2
20260507025520 11 180 0.0 1.6 0.00 0.00 0.00 96 1016.1
20260507024520 11 180 3.2 6.4 0.00 0.00 0.00 96 1016.0
20260507023542 11 180 3.2 6.4 0.00 0.00 0.00 96 1015.9
20260507022520 11 180 3.2 4.8 0.00 0.00 0.00 95 1015.9
20260507021520 12 180 4.8 6.4 0.00 0.00 0.00 96 1016.1
20260507020520 12 225 8.0 9.7 0.00 0.00 0.00 96 1015.9
20260507015520 12 209 4.8 8.0 0.00 0.00 0.00 96 1015.8
20260507014520 11 196 6.4 6.4 0.00 0.00 0.00 96 1015.9
20260507013520 11 180 1.6 3.2 0.00 0.00 0.00 95 1015.8
20260507012519 11 202 4.8 6.4 0.00 0.00 0.00 95 1015.8
20260507011541 12 202 1.6 6.4 0.00 0.00 0.00 94 1015.6
20260507010519 12 200 6.4 9.7 0.00 0.00 0.00 95 1015.6
20260507005520 12 202 8.0 9.7 0.00 0.00 0.00 95 1015.6
20260507004519 12 202 4.8 8.0 0.00 0.00 0.00 95 1015.4
20260507003519 12 202 6.4 8.0 0.00 0.00 0.00 95 1015.4
20260507002520 12 202 8.0 11.3 0.00 0.00 0.00 95 1015.4
20260507001539 12 202 3.2 6.4 0.00 0.00 0.00 95 1015.4
20260507000519 12 202 4.8 6.4 0.00 0.00 0.00 95 1015.5
20260506235519 12 202 3.2 4.8 0.00 0.00 0.00 94 1015.7
20260506234519 12 202 1.6 3.2 0.00 0.00 0.00 94 1015.7
20260506233519 12 202 1.6 6.4 0.00 0.00 0.00 94 1015.7
20260506232518 12 202 4.8 6.4 0.00 0.00 0.00 94 1015.7
20260506231518 12 202 3.2 6.4 0.00 0.00 0.00 94 1015.7
20260506230519 12 202 1.6 3.2 0.00 0.00 0.00 94 1015.7
20260506225538 12 202 4.8 8.0 0.00 0.00 0.00 94 1015.7
20260506224519 12 202 8.0 11.3 0.00 0.00 0.00 93 1015.7
20260506223519 12 202 4.8 8.0 0.00 0.00 0.00 93 1015.7
20260506222530 12 200 6.4 9.7 0.00 0.00 0.00 92 1015.8
20260506221530 12 217 8.0 11.3 0.00 0.00 0.00 92 1015.7
20260506220530 13 202 4.8 6.4 0.00 0.00 0.00 91 1015.9
20260506215530 13 201 8.0 9.7 0.00 0.00 0.00 90 1015.9
20260506214550 13 202 6.4 9.7 0.00 0.00 0.00 89 1015.9
20260506213530 13 202 6.4 9.7 0.00 0.00 0.00 88 1015.9
20260506212530 13 216 6.4 6.4 0.00 0.00 0.00 88 1015.9
20260506211530 13 202 6.4 8.0 0.00 0.00 0.00 88 1015.9
20260506210530 13 180 6.4 8.0 0.00 0.00 0.00 88 1016.1
20260506205530 13 202 6.4 9.7 0.00 0.00 0.00 88 1015.9
20260506204529 14 214 6.4 9.7 0.00 0.00 0.00 87 1015.9
20260506203529 14 202 8.0 9.7 0.00 0.00 0.00 89 1015.7
20260506202529 14 202 8.0 11.3 0.00 0.00 0.00 90 1015.8
20260506201529 15 202 6.4 6.4 0.00 0.00 0.00 90 1015.7
20260506200529 15 202 3.2 6.4 0.00 0.00 0.00 90 1015.6
20260506195529 15 214 4.8 6.4 0.00 0.00 0.00 90 1015.4
20260506194529 15 202 3.2 6.4 0.00 0.00 0.00 90 1015.3
20260506193529 15 202 3.2 6.4 0.00 0.00 0.00 90 1015.2
20260506192549 15 202 6.4 9.7 0.00 0.00 0.00 90 1015.2
20260506191529 15 198 8.0 11.3 0.00 0.00 0.00 91 1015.1
20260506190529 15 207 8.0 11.3 0.00 0.00 0.00 91 1015.1
20260506185529 15 199 8.0 11.3 0.00 0.00 0.00 90 1015.1
20260506184529 15 213 8.0 11.3 0.00 0.00 0.00 91 1015.0
20260506183529 15 218 8.0 11.3 0.00 0.00 0.00 90 1014.8
20260506182529 15 207 9.7 12.9 0.00 0.00 0.00 90 1014.8
20260506181528 16 217 8.0 11.3 0.00 0.00 0.00 89 1014.6
20260506180548 16 193 8.0 11.3 0.00 0.00 0.00 89 1014.4
20260506175529 16 186 6.4 9.7 0.00 0.00 0.00 89 1014.3
20260506174529 16 191 9.7 14.5 0.00 0.00 0.00 89 1014.2
20260506173528 16 185 9.7 14.5 0.00 0.00 0.00 88 1014.2
20260506172528 17 182 11.3 14.5 0.00 0.00 0.00 87 1014.2
20260506171528 17 179 11.3 16.1 0.00 0.00 0.00 85 1014.2
20260506170528 18 177 11.3 16.1 0.00 0.00 0.00 83 1014.2
20260506165528 19 177 11.3 14.5 0.00 0.00 0.00 80 1014.2
20260506164528 20 179 4.8 8.0 0.00 0.00 0.00 77 1014.2
20260506163528 21 165 4.8 9.7 0.00 0.00 0.00 74 1014.1
20260506162528 21 179 9.7 14.5 0.00 0.00 0.00 72 1014.0
20260506161528 21 173 9.7 16.1 0.00 0.00 0.00 69 1014.0
20260506160548 22 173 11.3 14.5 0.00 0.00 0.00 67 1013.9
20260506155528 22 169 9.7 17.7 0.00 0.00 0.00 64 1013.9
20260506154548 22 175 12.9 19.3 0.00 0.00 0.00 62 1014.0
20260506153528 23 179 11.3 16.1 0.00 0.00 0.00 61 1014.1
20260506152529 23 166 11.3 20.9 0.00 0.00 0.00 58 1014.0
20260506151528 23 180 12.9 19.3 0.00 0.00 0.00 57 1014.0
20260506150528 23 159 11.3 20.9 0.00 0.00 0.00 55 1014.0
20260506145528 24 171 12.9 22.5 0.00 0.00 0.00 54 1014.1
20260506144528 24 164 11.3 17.7 0.00 0.00 0.00 52 1014.1
20260506143528 25 177 11.3 22.5 0.00 0.00 0.00 50 1014.2
20260506142549 25 167 9.7 16.1 0.00 0.00 0.00 49 1014.3
20260506141528 25 162 9.7 16.1 0.00 0.00 0.00 49 1014.3
20260506140549 25 178 12.9 22.5 0.00 0.00 0.00 46 1014.4
20260506135528 25 170 12.9 19.3 0.00 0.00 0.00 46 1014.4
20260506134528 25 157 9.7 14.5 0.00 0.00 0.00 46 1014.5
20260506133548 25 191 14.5 24.1 0.00 0.00 0.00 45 1014.5
20260506132528 25 162 12.9 22.5 0.00 0.00 0.00 45 1014.6
20260506131548 25 148 11.3 20.9 0.00 0.00 0.00 45 1014.7
20260506130528 25 138 9.7 24.1 0.00 0.00 0.00 46 1014.8
20260506125548 25 145 11.3 17.7 0.00 0.00 0.00 45 1014.9
20260506124528 25 168 11.3 24.1 0.00 0.00 0.00 46 1015.0